Theta_e
350 353 357 358 357 358 357 357 356 355 354 354 354 354 353 353 353 353 353 352 353 352 352 352 352 352 352 353 353 353 353 353 353 352 352 352 352 352 352 352 352 352 349 348 347 347 346 347 346 346 347 346 346 347 348 348 348 347 344 343 343 341 342 342 342 345 342 338 337 338 338 338 338 337 338 339 339 341 341 342 341 338 337 339 342
349 354 357 357 357 357 357 357 356 355 354 354 354 354 353 353 353 353 353 353 353 352 352 352 352 352 352 353 353 353 353 352 352 352 352 351 352 353 353 354 353 352 350 349 348 347 347 347 350 351 350 349 348 348 348 348 347 346 344 344 342 341 341 342 343 345 343 339 338 337 338 337 338 338 337 338 339 342 342 341 342 337 337 341 342
353 355 356 355 357 357 357 357 355 354 354 354 354 353 353 353 353 353 352 352 352 352 352 352 352 352 352 353 353 353 353 352 351 351 351 351 352 352 352 351 351 351 351 349 348 347 346 345 345 350 351 351 350 350 350 349 347 345 344 342 343 342 344 343 343 343 343 343 342 340 339 338 337 336 337 337 339 340 341 341 342 341 338 342 342
351 354 354 356 357 356 356 356 355 354 354 354 354 353 353 353 353 352 351 352 352 352 352 352 352 352 352 352 352 352 352 352 351 351 351 351 351 350 351 351 351 351 351 350 349 347 346 345 346 347 349 349 349 349 349 349 349 346 346 344 343 343 343 342 341 341 342 342 341 339 338 330 335 337 336 338 338 338 339 340 340 341 341 341 341
352 353 353 354 354 355 355 355 355 354 354 354 354 353 353 353 353 353 352 352 352 352 352 352 352 352 352 352 352 352 352 352 352 351 352 351 352 351 351 351 350 348 347 348 348 347 347 346 346 345 346 347 348 348 348 348 348 347 346 346 345 343 343 342 345 344 341 342 341 338 334 331 330 338 338 337 337 337 336 338 339 339 340 339 339
352 353 352 353 353 353 354 353 354 354 354 354 354 354 354 353 353 353 353 352 352 352 352 352 352 352 352 352 352 352 352 351 351 351 350 351 350 351 348 347 348 347 347 348 348 348 347 344 343 343 344 345 346 346 346 347 347 346 346 346 346 345 345 344 343 343 343 340 339 334 334 333 330 333 338 337 337 335 337 337 338 338 338 338 338
352 352 351 352 352 353 354 353 354 354 354 354 354 354 354 354 353 353 353 353 352 352 352 352 352 352 352 351 351 351 351 350 351 351 351 351 350 349 347 346 346 346 346 347 348 348 347 344 343 344 344 345 346 346 346 345 345 345 345 345 345 345 345 345 344 344 343 337 329 330 331 333 331 331 338 338 337 336 335 336 336 336 336 337 337
352 352 351 352 352 353 353 353 354 354 353 354 354 354 353 353 354 353 353 353 352 352 351 351 351 351 351 351 351 351 351 350 351 351 351 352 352 351 349 347 347 346 347 347 347 347 346 344 343 343 344 344 345 345 345 345 345 345 345 344 344 344 344 344 343 344 341 334 330 332 334 334 333 331 336 336 336 336 336 337 336 336 336 336 335
350 351 351 352 352 354 353 353 353 354 354 354 354 354 354 354 354 353 353 353 352 352 350 350 351 351 351 351 351 350 350 350 350 351 352 350 349 351 353 351 350 349 348 349 347 347 347 345 344 344 344 344 345 344 344 343 344 344 344 344 344 344 345 346 345 346 339 332 330 329 333 334 332 329 333 334 336 336 335 333 335 335 334 335 335
349 350 351 351 352 353 352 352 353 354 354 354 354 354 354 354 354 353 353 353 352 352 351 351 351 351 351 350 350 350 349 349 349 349 350 349 349 349 350 349 350 351 350 349 348 347 345 344 343 344 344 343 343 342 342 343 344 344 344 345 345 345 346 343 341 338 330 329 331 333 336 338 331 329 333 337 338 336 335 337 337 336 335 335 334
348 350 350 351 352 352 352 352 353 354 355 354 354 354 354 354 354 354 353 353 352 351 351 351 352 351 351 351 350 350 350 349 348 348 349 348 348 349 349 349 349 349 349 349 348 347 346 344 343 344 344 343 342 342 342 343 345 345 345 345 345 346 346 341 336 330 332 333 332 334 338 338 330 328 335 336 337 337 336 335 336 336 336 336 336
348 349 350 351 354 352 352 352 352 353 354 354 354 354 354 354 354 353 353 352 351 351 351 352 351 351 351 350 350 350 350 349 348 348 348 348 348 348 348 349 349 349 348 348 347 346 346 344 344 345 344 343 342 343 343 344 344 345 345 345 346 347 347 341 334 333 335 336 336 336 336 335 333 334 339 338 337 336 335 334 335 334 334 335 335
347 349 350 352 351 352 351 351 352 352 354 354 354 354 354 354 353 353 352 352 352 352 352 352 352 351 351 350 350 350 350 349 348 348 348 348 348 347 348 348 349 349 348 348 347 346 346 345 344 344 344 344 343 343 343 344 344 345 344 345 347 347 346 340 333 335 335 336 337 337 337 335 333 337 336 337 337 336 337 336 334 334 333 337 337
346 348 350 351 350 354 351 350 351 352 353 353 354 354 354 353 353 352 352 352 352 352 351 351 351 350 350 350 350 350 350 350 348 348 348 348 347 347 347 347 348 348 348 347 347 347 346 345 344 343 344 343 342 342 343 344 344 344 345 346 346 347 344 338 337 334 335 335 336 334 333 334 331 334 335 335 335 335 335 334 334 334 334 333 333
346 348 349 349 351 351 353 351 351 351 351 351 352 352 352 352 352 351 351 351 351 351 351 351 350 350 350 350 350 350 350 350 350 349 348 348 347 347 347 347 347 347 347 347 347 346 345 344 344 343 343 342 342 342 342 343 344 343 345 346 346 347 343 333 334 334 334 335 334 334 332 333 338 338 338 338 338 336 335 334 333 334 334 333 332
347 347 349 349 350 351 351 353 351 350 350 351 351 351 351 351 351 351 351 351 351 351 351 350 350 350 349 350 350 350 350 350 350 349 348 347 347 347 348 348 348 347 347 347 346 345 345 345 345 343 343 342 342 342 343 342 343 344 345 345 346 347 343 338 332 332 332 332 333 334 332 335 340 338 338 338 336 336 335 334 333 333 333 333 333
346 348 347 347 348 349 350 350 350 351 350 350 351 351 350 351 350 350 350 350 350 350 350 350 349 349 349 349 349 349 350 350 349 349 348 348 347 347 347 348 348 347 347 346 345 344 344 345 344 343 342 342 342 343 342 343 343 345 346 345 347 346 342 338 331 330 330 334 334 333 332 333 337 338 339 339 337 335 335 334 333 333 333 333 333
346 346 346 347 348 349 348 348 349 348 348 350 351 350 350 350 349 349 350 350 350 350 349 349 349 349 349 349 349 349 349 349 349 348 348 347 347 347 347 347 346 346 346 345 345 344 344 344 344 343 342 342 342 342 343 342 343 344 345 346 347 342 341 338 330 331 333 337 332 335 334 340 339 339 339 337 335 334 335 335 334 333 333 332 332
344 345 347 347 347 348 347 347 347 346 347 347 347 349 350 350 349 350 349 349 349 349 349 349 349 349 349 349 349 348 349 349 349 348 347 347 347 347 347 346 346 346 345 345 345 344 343 343 342 342 342 341 342 342 343 342 344 345 346 346 347 342 340 337 331 332 333 332 332 333 334 340 339 337 337 338 338 336 335 334 334 334 334 333 333
342 343 344 346 347 346 346 345 344 345 345 346 346 346 347 350 349 350 349 349 349 349 349 349 349 349 348 348 348 348 348 347 348 347 347 347 346 345 346 346 345 345 345 344 344 343 343 343 342 342 342 341 342 342 342 342 343 344 346 346 344 343 332 330 331 331 330 332 334 333 340 340 340 338 339 339 338 336 335 334 334 334 333 333 333
340 340 342 344 346 345 344 344 344 344 344 345 345 343 345 349 349 349 349 349 349 349 349 349 349 348 347 347 346 345 344 345 345 345 347 345 346 347 346 346 345 344 344 343 343 343 343 343 342 342 342 341 341 341 342 342 342 344 345 345 342 332 330 331 331 333 333 334 336 334 341 340 340 338 339 339 339 338 338 337 335 335 334 334 333
338 339 341 343 344 345 344 343 343 343 344 344 344 345 346 347 345 345 347 348 347 347 346 345 348 344 347 345 344 345 343 342 344 347 344 345 344 346 345 345 344 344 343 343 343 342 342 342 342 340 341 340 342 330 332 339 340 342 345 342 334 331 332 332 332 333 334 333 335 339 342 341 339 339 339 339 338 338 338 336 336 336 335 334 333
337 338 339 342 343 344 344 343 343 343 343 342 343 343 344 344 344 344 345 347 347 346 344 343 340 341 342 343 344 342 342 344 344 345 345 345 345 346 345 344 344 343 343 342 342 342 341 341 341 341 341 341 332 328 329 329 330 340 341 335 331 330 331 332 332 333 333 334 333 341 341 341 338 337 337 337 338 340 339 337 336 336 335 334 333
336 338 339 341 342 342 342 342 342 341 340 338 339 339 342 341 341 342 342 342 341 342 340 339 340 341 341 340 341 343 341 341 347 348 347 344 343 345 345 344 344 342 342 341 341 340 341 340 340 341 338 336 328 328 329 329 329 330 332 332 330 330 331 332 332 333 334 338 335 342 342 342 340 338 338 338 341 341 339 339 337 336 334 333 333
336 337 338 339 339 339 340 341 340 339 338 337 338 337 337 338 338 340 340 339 339 339 338 338 339 339 339 339 339 339 338 339 340 341 340 341 339 339 340 338 338 337 341 331 331 331 331 327 325 332 326 328 329 325 326 327 328 332 331 332 331 331 332 333 333 333 333 334 335 341 341 341 341 339 340 341 342 342 340 338 336 335 334 333 332
336 336 337 338 337 337 340 339 338 337 337 336 337 338 337 337 337 338 338 337 338 338 337 336 337 338 339 340 339 337 337 338 339 339 338 337 336 336 336 336 334 334 336 330 331 329 329 329 328 328 328 328 328 328 327 330 328 331 331 332 330 330 331 331 333 333 333 333 337 341 340 340 340 341 341 342 342 341 340 338 337 336 334 334 333
334 335 336 336 336 337 339 339 337 337 337 339 338 337 336 336 336 336 335 335 336 336 336 336 337 338 339 340 337 335 335 336 336 336 335 335 334 334 334 334 333 333 334 331 331 331 329 329 329 330 328 329 329 330 330 330 329 329 330 331 330 331 331 332 332 332 332 333 339 341 341 340 340 341 341 342 342 342 340 339 337 336 335 334 333
333 334 336 336 336 337 339 337 337 337 337 337 335 335 334 335 335 339 337 340 337 334 334 336 338 338 339 339 339 335 334 335 334 333 332 332 332 334 333 331 331 331 333 331 330 330 330 329 331 330 329 328 328 328 329 331 330 330 330 330 330 330 331 331 332 332 332 334 336 341 341 340 340 340 340 341 341 340 338 336 336 338 337 335 334
333 333 335 337 336 337 338 337 336 334 334 335 334 334 333 333 333 334 336 341 334 334 335 337 336 337 338 339 340 335 335 335 333 332 331 332 332 333 332 331 332 331 333 331 332 330 329 329 329 328 328 327 327 328 329 330 330 330 330 330 330 330 330 331 332 332 332 331 334 338 341 341 341 341 338 340 340 337 336 334 338 339 338 337 334
335 334 334 336 337 338 338 338 336 334 335 335 332 332 332 332 332 334 335 338 333 333 336 335 336 336 336 337 338 336 335 334 332 330 331 329 330 330 332 331 331 330 330 330 329 330 328 328 329 329 329 327 327 330 329 329 331 330 330 331 330 330 330 331 332 332 333 333 334 335 341 341 341 340 341 338 337 337 337 335 335 338 338 336 335
330 328 333 332 334 337 336 337 335 335 335 333 331 331 333 332 333 333 334 333 333 334 335 334 335 336 336 337 338 337 334 332 331 330 329 329 329 330 329 330 329 329 329 330 332 331 330 329 330 329 328 327 327 328 329 328 328 330 330 330 330 330 330 331 331 332 333 332 332 332 336 341 341 341 341 341 339 337 337 336 334 335 338 337 335
329 328 330 333 335 334 335 336 335 335 334 332 332 331 331 332 333 333 333 333 333 333 334 334 337 335 336 336 337 336 333 331 331 330 329 328 328 328 329 330 328 329 329 330 330 331 331 331 332 331 329 328 327 328 327 329 328 328 328 330 331 330 330 331 331 332 333 331 331 331 331 335 341 340 340 340 341 338 337 336 335 335 337 338 337
331 330 331 333 334 333 331 333 334 334 332 331 331 331 331 332 332 332 333 334 333 334 334 334 334 333 335 335 335 336 334 332 330 331 331 328 328 328 327 329 331 331 330 330 331 331 332 331 331 331 329 327 327 327 330 329 326 326 327 330 331 331 331 331 331 332 332 330 331 330 331 333 334 340 340 340 340 341 341 338 338 337 336 336 339
330 331 331 332 334 334 333 333 333 332 331 331 331 331 331 331 332 332 333 333 333 333 334 334 335 334 336 335 334 336 334 332 331 329 329 328 328 327 329 333 333 330 330 329 329 330 329 329 329 329 331 327 326 326 327 325 325 327 327 328 328 328 329 330 330 331 332 332 331 331 331 331 330 332 334 340 341 341 341 341 340 339 337 337 337
331 332 331 332 334 333 333 331 332 332 333 331 331 330 330 331 331 331 331 332 333 331 332 333 332 333 335 334 334 335 334 332 330 329 328 328 328 329 330 331 331 329 329 327 328 328 329 328 328 327 327 327 327 327 327 325 327 327 326 327 328 329 329 329 331 331 332 331 331 330 328 329 330 332 331 330 339 341 341 342 340 339 339 337 336
330 332 333 333 333 333 333 332 332 331 330 332 330 330 330 330 331 334 331 331 332 332 331 332 333 334 334 334 334 335 334 333 332 330 329 328 330 331 330 330 330 330 329 328 327 327 327 328 327 328 325 325 327 327 327 327 328 328 327 328 329 330 328 328 329 330 331 330 330 328 327 327 329 329 337 329 329 336 340 340 340 340 341 340 337
331 331 331 331 332 332 332 331 331 330 330 330 330 329 329 329 330 332 331 331 332 331 331 332 334 335 334 334 333 334 332 334 334 332 331 331 331 330 330 331 331 331 329 327 326 328 328 328 327 328 326 325 327 327 328 328 328 327 327 327 328 328 327 328 329 329 331 329 327 327 327 329 332 338 328 328 329 329 336 337 338 338 338 338 339
331 331 331 331 330 331 330 330 331 331 331 330 330 329 329 330 330 331 334 332 332 332 332 333 334 333 333 333 333 333 332 333 334 333 331 331 331 330 330 330 330 330 329 328 327 326 326 327 326 326 327 326 325 326 326 327 328 327 327 327 326 328 328 328 328 331 326 326 327 327 326 328 330 328 327 327 328 327 327 331 334 335 336 337 338
330 330 331 331 330 329 330 331 331 331 331 330 330 330 330 330 330 332 333 333 333 332 333 333 333 333 332 332 333 333 333 331 333 332 331 330 328 329 329 329 330 328 328 327 326 326 327 325 325 325 327 327 326 326 326 328 329 328 327 325 326 326 327 328 328 327 326 326 327 329 328 327 327 327 327 328 328 326 324 326 328 329 332 337 336
329 330 330 329 329 329 330 330 331 331 331 331 331 331 331 331 332 332 331 330 329 333 332 332 333 332 334 334 334 332 333 332 331 331 330 328 327 327 328 328 329 329 327 325 324 326 326 324 323 326 325 327 327 326 326 327 326 325 324 324 325 326 326 326 326 326 325 325 326 326 326 324 324 325 328 329 329 328 328 331 331 330 331 331 331
328 328 329 328 329 330 330 329 330 331 330 330 330 330 331 330 328 329 328 328 329 329 331 330 331 331 334 336 335 333 332 333 333 331 329 332 327 326 327 327 329 329 328 326 325 325 326 324 324 324 324 324 324 325 326 326 324 320 322 322 322 324 330 327 326 326 327 326 325 324 324 325 322 324 326 328 329 328 330 331 330 329 328 327 326
327 328 328 329 330 331 330 330 330 331 330 330 330 330 331 331 328 327 325 324 326 328 326 326 330 333 334 334 333 333 331 332 332 331 330 328 327 327 326 326 328 328 328 327 325 329 328 327 325 323 323 322 323 327 328 323 319 318 317 315 317 319 322 321 324 324 324 324 323 322 321 322 324 326 327 327 329 331 330 327 328 330 329 326 324
328 328 329 329 330 331 330 331 331 330 330 330 330 329 325 325 325 323 326 324 327 328 329 330 332 332 332 333 333 332 332 332 331 331 330 328 328 328 328 328 328 330 327 325 325 326 326 327 324 323 321 320 323 324 324 320 319 318 316 316 312 312 316 315 319 321 322 320 322 323 322 323 326 325 325 325 325 326 328 328 329 329 326 324 322
327 327 328 329 331 331 330 330 330 329 329 330 329 326 327 323 322 323 324 325 325 328 328 328 330 331 331 332 331 331 331 330 331 331 329 327 327 327 327 328 328 329 328 326 325 325 325 325 323 322 323 322 318 320 323 321 319 319 313 310 311 309 308 311 312 314 319 320 320 320 321 324 324 324 324 324 324 324 326 328 329 329 327 322 318
326 327 328 330 331 330 330 329 328 327 327 328 326 324 324 323 324 324 324 324 325 324 324 323 326 330 329 328 328 329 329 329 329 330 329 326 325 326 327 327 326 325 327 325 326 326 326 326 324 323 322 322 318 317 320 323 323 321 317 312 309 307 306 310 309 310 313 314 317 318 324 322 322 323 324 324 324 324 325 326 325 320 316 315 313
325 327 329 330 330 330 327 325 324 324 325 324 323 324 324 322 321 321 320 320 319 320 321 323 324 326 327 326 328 329 329 327 327 329 328 328 326 326 326 328 327 326 327 325 327 327 326 326 325 324 321 322 322 318 317 320 321 322 318 314 313 309 310 311 307 304 311 312 315 318 320 320 320 322 323 323 323 323 325 323 318 315 314 313 312
325 327 328 328 328 327 325 324 324 323 323 322 323 323 321 321 321 321 321 320 318 317 319 323 324 323 326 326 326 326 327 327 325 325 326 326 325 325 326 327 328 326 328 327 327 326 327 328 327 324 323 323 321 318 319 317 319 319 320 320 322 317 316 311 305 306 305 308 311 313 314 316 317 320 321 321 322 322 323 322 318 316 314 312 310
325 325 325 325 325 324 324 324 323 323 322 322 322 322 320 318 319 319 319 318 318 317 319 320 320 322 322 323 324 323 324 325 324 322 323 325 325 324 325 326 326 327 327 328 328 326 327 327 326 324 325 324 322 320 318 318 319 317 320 318 318 318 316 315 311 309 306 306 306 311 312 312 314 315 319 320 321 319 314 312 312 311 309 310 309
324 325 325 325 324 323 323 323 323 323 322 322 322 320 320 320 321 318 316 316 317 318 319 320 320 321 319 319 320 319 319 321 322 323 323 324 326 324 323 323 323 326 329 326 325 327 325 324 324 323 324 323 321 321 321 319 318 319 318 318 315 316 318 317 315 310 306 306 304 307 308 310 311 311 316 318 317 313 312 311 311 309 310 307 306
325 325 325 324 323 322 323 323 323 323 322 320 322 321 320 321 318 316 315 315 316 315 316 317 317 319 318 317 317 318 319 319 319 320 320 322 321 321 321 322 322 324 326 324 323 324 325 325 325 324 323 323 321 322 322 320 321 321 321 319 315 314 316 315 312 308 308 307 306 306 306 308 306 306 313 314 312 311 310 309 306 305 304 304 304
324 325 324 324 323 323 322 323 323 322 322 321 320 319 319 319 317 316 315 314 314 315 315 314 315 317 317 316 317 317 319 319 319 319 319 320 320 320 319 319 321 327 323 323 323 324 324 324 324 323 322 322 321 320 319 319 320 320 320 320 318 318 315 313 313 309 307 305 305 305 304 306 306 307 308 311 311 309 307 306 304 304 303 303 303
Wind_Speed
6 9 9 12 12 14 15 17 18 20 21 19 19 19 19 20 19 19 18 17 17 18 18 19 20 20 21 21 20 20 20 20 19 19 20 20 19 21 20 20 20 20 20 19 18 18 19 18 17 16 17 17 18 18 18 17 17 16 16 16 17 15 16 18 17 19 19 17 16 18 17 16 17 16 16 16 16 17 16 17 14 9 6 12 16
13 8 9 11 14 15 15 17 18 20 21 19 20 19 19 19 19 19 18 17 16 17 18 17 18 18 20 20 20 20 19 19 19 19 19 20 19 19 19 19 19 20 20 19 18 18 18 18 17 16 16 16 16 16 17 17 16 16 16 16 16 14 15 16 18 18 17 18 17 17 18 18 18 17 15 15 16 18 17 16 15 7 5 15 17
11 11 9 12 15 15 15 17 18 20 20 19 20 19 20 19 19 18 18 17 16 16 16 16 17 17 18 19 19 19 18 18 18 18 19 19 19 20 19 18 18 18 19 18 18 18 17 17 17 17 17 15 15 16 16 16 15 14 15 16 15 15 16 16 17 18 17 17 16 16 17 18 15 17 16 15 15 16 17 16 15 14 10 17 15
13 10 10 13 16 15 16 17 17 18 19 18 19 20 19 19 19 18 17 17 16 16 16 16 16 16 18 18 18 18 18 18 17 16 16 16 16 18 17 17 17 18 18 18 18 17 16 17 16 16 16 16 16 15 15 15 15 14 15 14 14 15 16 17 18 17 17 15 13 9 4 5 10 15 16 14 14 15 16 16 16 16 16 15 16
12 11 10 10 12 14 17 16 17 17 18 18 19 20 19 19 18 17 17 17 17 17 16 17 16 16 17 18 17 18 18 18 17 16 13 12 15 17 17 18 18 18 18 17 17 17 17 16 15 15 14 15 15 14 14 14 14 14 12 12 11 11 14 16 16 14 15 14 13 9 4 5 4 14 14 15 14 13 14 15 15 15 15 16 15
11 10 10 9 10 12 17 17 17 18 18 19 19 19 19 19 19 18 16 16 16 17 17 17 17 17 17 17 18 17 17 17 16 15 12 11 13 15 16 16 16 17 17 17 16 16 16 14 12 12 12 13 13 13 12 12 12 12 12 11 9 8 6 4 5 9 10 11 9 3 5 5 3 7 15 15 15 13 15 15 14 14 14 15 14
13 10 9 10 9 11 17 17 17 18 18 19 18 19 19 19 18 18 17 17 15 15 16 17 17 17 17 17 18 17 16 16 15 12 11 12 13 13 14 15 15 16 16 16 16 16 17 15 12 11 11 11 12 11 11 11 12 11 11 10 10 8 6 5 4 6 9 6 4 3 5 5 3 5 15 15 15 13 13 13 13 13 12 12 13
10 9 10 10 9 13 17 17 17 18 19 18 18 19 19 19 18 17 16 16 16 16 15 16 17 17 17 16 17 17 15 15 14 13 12 11 10 11 14 15 14 15 16 16 16 16 15 15 12 11 10 10 11 11 10 10 11 10 10 9 8 8 5 3 1 4 9 4 4 5 5 6 5 5 12 14 14 15 15 14 13 13 13 13 12
11 10 9 10 11 18 17 17 17 19 19 18 18 19 19 19 18 17 17 16 16 16 16 16 17 17 17 17 17 17 16 15 15 15 15 16 15 14 12 12 12 13 13 13 16 15 16 14 11 11 10 10 10 10 9 9 10 9 9 9 9 7 6 5 9 12 7 3 4 5 6 6 4 4 11 14 15 15 15 12 11 14 13 13 13
10 10 9 8 10 17 17 17 17 18 19 19 19 18 19 18 17 17 17 17 17 16 16 16 17 17 17 17 16 16 16 15 15 16 16 16 16 16 15 15 16 16 17 18 16 15 15 13 10 10 10 9 9 8 7 8 8 8 9 10 9 9 11 13 18 10 5 4 5 6 7 8 4 3 12 15 15 15 15 13 10 11 11 13 12
11 9 8 9 12 17 17 17 17 18 18 19 19 18 18 17 17 16 17 16 16 16 15 16 16 17 17 18 17 17 16 15 15 15 16 15 15 15 16 16 15 14 16 16 16 16 15 12 9 9 9 8 8 7 6 7 7 8 9 10 10 10 11 13 12 6 5 5 5 6 11 14 5 4 13 15 16 15 14 14 14 14 14 13 12
10 8 7 8 14 16 16 17 17 17 17 18 18 18 18 17 17 16 16 16 15 15 15 14 15 16 17 18 17 17 17 16 15 15 15 15 15 15 16 15 15 15 15 15 15 15 15 12 9 9 9 8 7 6 5 7 7 8 9 10 10 10 10 12 8 6 5 5 7 6 6 6 5 9 15 15 15 14 15 15 14 14 14 13 13
10 9 8 9 10 15 16 16 16 16 17 17 17 17 17 16 17 16 16 14 14 13 14 13 13 14 15 16 17 17 16 16 15 15 14 14 14 14 14 14 15 15 15 15 15 15 14 12 8 8 8 7 6 5 6 7 7 8 9 11 10 10 10 13 7 7 6 6 7 7 6 5 6 14 14 15 14 13 14 14 14 14 14 14 13
10 9 8 9 8 14 15 15 15 15 16 17 17 17 17 16 16 15 14 14 13 13 12 12 13 14 15 15 15 16 15 15 15 15 15 14 14 14 13 13 14 14 14 14 14 14 13 12 8 7 7 6 5 5 6 6 6 7 9 10 10 10 12 11 8 6 7 7 6 6 5 5 7 14 14 13 14 14 13 13 14 13 12 11 11
11 10 9 8 8 9 15 14 13 13 13 13 14 15 15 15 15 14 14 14 13 13 13 14 14 14 14 15 15 15 15 15 16 15 15 14 13 13 14 13 13 13 13 13 13 13 12 11 10 5 4 4 5 4 5 6 6 7 9 9 9 9 11 7 6 5 6 6 5 7 6 5 14 14 15 15 13 13 13 12 12 12 12 13 12
10 10 9 7 7 7 8 11 12 12 12 13 13 14 14 14 14 14 14 13 13 13 14 14 14 14 13 14 14 14 14 15 14 15 14 14 13 14 14 13 13 12 13 13 12 12 11 11 9 5 3 3 3 4 4 5 5 6 8 9 7 7 13 8 5 4 5 5 5 4 5 7 14 14 14 15 14 13 13 13 13 13 13 12 11
9 9 9 8 7 6 7 7 9 14 12 12 12 13 13 14 14 14 14 13 13 12 13 13 13 13 12 12 13 13 14 14 14 14 14 13 13 13 13 13 12 12 12 11 11 11 10 10 8 6 2 1 2 2 3 5 6 6 8 9 8 10 15 10 6 5 5 5 6 5 5 5 12 15 15 15 15 14 13 12 12 12 11 12 12
9 8 8 8 8 7 7 7 8 8 8 11 13 13 13 13 14 13 13 13 12 12 13 13 12 12 12 12 12 13 13 13 13 14 14 13 13 13 13 14 13 12 11 10 10 10 9 8 8 6 3 1 1 2 3 5 6 7 8 9 9 14 14 11 6 4 4 6 6 5 5 7 12 16 15 15 14 13 13 13 12 11 11 10 11
8 7 8 8 8 8 8 7 7 7 8 7 7 11 14 14 13 13 13 12 11 12 12 12 13 12 12 11 12 13 13 13 13 13 13 13 12 11 12 13 13 11 10 9 9 9 8 7 7 6 3 1 3 3 4 6 7 7 8 9 7 11 15 8 5 4 4 5 5 5 5 10 9 12 14 14 14 14 13 12 11 10 10 10 10
7 7 7 7 8 8 7 7 7 7 6 7 8 8 14 15 15 13 12 12 12 12 12 12 13 12 12 12 13 11 12 11 14 10 13 13 11 7 10 12 12 11 10 9 8 8 7 6 5 4 3 2 3 3 4 6 7 7 8 9 6 11 7 5 5 5 5 5 5 6 9 11 12 13 14 14 14 13 12 11 11 10 10 10 9
6 6 6 7 8 9 9 7 7 8 8 8 7 8 11 14 12 13 13 12 12 12 12 12 12 11 10 10 9 6 5 6 7 6 10 7 9 9 10 12 12 10 9 8 8 8 7 5 4 2 1 2 2 3 4 6 7 7 8 8 8 6 5 6 6 5 4 5 5 5 10 10 12 13 13 13 13 12 12 11 11 10 9 10 10
7 6 6 7 8 8 9 8 7 8 8 7 6 7 8 10 7 7 7 8 10 10 8 6 7 5 11 7 5 4 4 4 5 8 5 7 7 10 10 11 11 10 8 7 7 7 6 5 4 1 1 1 2 1 3 5 7 7 9 7 6 5 5 6 5 5 4 4 5 7 11 10 11 13 13 13 12 12 11 11 10 10 10 10 9
7 6 6 7 7 7 8 8 8 8 8 7 6 6 8 6 6 6 6 7 8 7 5 6 5 5 4 4 4 5 4 4 5 6 5 8 7 9 10 11 11 9 8 7 6 7 6 5 4 3 1 2 2 2 2 3 4 6 8 4 6 5 5 5 5 5 5 4 4 10 10 10 11 12 12 12 11 12 11 10 10 10 10 10 9
7 6 6 6 7 7 8 8 8 8 8 6 6 5 6 5 4 4 5 5 5 5 5 5 5 5 5 4 4 4 3 3 9 13 10 5 6 8 10 10 10 8 7 4 5 4 6 4 3 3 2 1 1 1 2 3 4 5 2 3 6 5 5 5 5 5 5 5 5 10 8 8 11 12 11 11 12 12 11 11 10 10 10 9 9
5 6 5 6 7 7 7 8 8 8 7 7 7 4 4 5 4 5 5 5 5 5 5 5 5 5 5 5 4 4 4 4 4 4 4 4 3 3 3 4 4 4 5 3 2 1 2 1 1 1 0 0 1 2 1 3 3 7 1 2 5 5 5 5 5 5 4 4 5 9 7 6 7 10 11 12 13 13 12 11 10 9 9 8 8
6 6 6 7 6 7 8 7 8 8 8 6 6 6 5 5 5 5 5 4 5 5 5 5 4 5 5 5 5 6 5 5 5 4 4 3 4 3 4 4 3 3 3 2 1 0 0 0 0 0 0 0 1 3 2 2 2 6 4 4 5 4 5 3 3 4 4 4 5 9 7 6 5 11 12 12 13 13 12 11 10 9 8 7 8
5 5 6 6 6 7 8 8 10 8 10 8 8 6 6 5 4 3 5 5 4 5 5 5 5 5 5 5 6 6 6 5 5 4 3 4 3 3 4 3 3 3 2 3 1 1 1 1 2 3 3 4 4 4 4 2 0 4 4 5 5 5 4 4 3 4 4 4 5 8 7 6 5 10 11 12 12 12 11 11 9 8 7 7 7
2 4 5 5 5 7 8 9 8 8 7 7 9 7 5 4 2 4 5 6 6 4 4 4 4 4 5 4 5 6 6 5 4 4 3 3 3 3 3 3 2 2 2 1 1 4 4 4 4 4 5 5 4 3 3 4 5 5 5 4 5 6 5 4 3 4 4 5 4 5 5 6 5 7 12 12 11 12 10 9 9 9 8 7 7
4 3 4 6 6 6 7 9 8 9 7 6 8 6 4 4 2 4 6 6 6 5 4 4 4 4 4 5 5 6 5 5 5 4 4 4 3 3 4 3 4 3 4 4 3 3 3 3 4 5 5 5 4 5 4 3 5 4 6 5 5 5 5 4 4 4 4 4 3 5 6 5 4 5 10 12 11 10 9 7 9 9 9 8 8
7 6 5 6 6 7 8 8 8 8 8 7 6 6 5 7 5 5 6 7 7 5 5 5 4 5 4 4 4 5 5 5 5 4 5 4 3 3 3 3 4 2 3 4 2 4 3 2 4 4 5 5 6 4 4 4 4 4 3 6 5 5 5 5 5 5 4 4 3 3 5 4 4 3 7 9 9 9 9 8 8 9 10 9 8
10 10 2 4 5 8 6 8 10 11 8 9 10 11 8 7 6 6 6 7 6 5 4 4 4 3 4 3 4 4 5 5 5 5 4 4 3 3 2 2 3 2 3 4 4 4 3 2 3 4 4 6 6 4 4 3 2 4 2 4 4 5 5 5 5 5 4 3 2 2 3 5 5 5 4 5 7 8 9 8 7 8 10 10 8
10 10 9 8 7 8 7 9 9 10 11 9 10 10 8 9 8 6 6 7 7 6 5 4 4 3 3 3 3 4 4 4 4 4 5 4 4 4 3 3 3 2 2 3 4 4 3 2 3 4 2 5 6 5 3 5 4 4 3 3 4 5 5 5 5 5 3 2 3 3 2 3 5 6 6 5 4 4 8 8 7 7 8 9 8
10 13 12 11 9 8 7 8 9 10 12 10 9 9 9 7 8 7 6 5 5 5 5 4 4 1 1 2 2 4 4 5 4 4 4 5 4 4 3 3 3 2 2 3 3 4 4 4 3 4 3 4 6 5 4 3 2 3 2 2 5 5 5 5 6 5 1 3 3 3 4 1 1 4 5 5 5 5 4 8 8 8 7 7 8
12 10 13 10 7 6 7 7 9 12 12 10 6 8 8 6 5 5 3 5 5 4 4 4 4 4 3 3 3 4 4 4 4 4 5 5 4 3 3 3 3 3 3 3 4 3 3 4 4 5 4 5 6 6 5 2 1 3 2 2 3 5 5 7 7 2 5 2 3 3 1 0 1 3 2 4 4 4 5 7 6 5 4 6 7
6 10 14 12 9 7 7 6 11 11 11 9 9 7 5 5 5 4 4 4 4 2 2 3 2 3 3 3 3 3 5 5 5 6 5 5 4 4 3 3 4 3 4 2 4 4 4 4 4 7 4 4 5 4 5 3 2 5 2 3 5 5 7 9 5 6 5 2 3 2 1 2 3 3 2 2 4 4 5 5 5 3 3 1 4
9 10 11 10 10 9 9 9 9 11 10 9 7 5 4 4 4 4 4 3 4 3 3 3 4 3 4 4 4 4 4 5 5 5 4 4 5 4 4 4 3 3 3 3 3 4 3 4 2 6 6 4 6 5 4 4 4 5 3 4 4 4 9 8 6 5 1 2 3 1 1 1 2 1 3 3 3 4 6 6 7 7 7 5 4
10 12 11 11 11 11 10 10 9 9 8 7 6 4 4 4 4 4 4 4 4 4 4 4 4 5 5 5 4 4 4 4 5 4 4 4 4 5 4 5 4 4 4 3 3 3 4 4 3 2 4 5 4 5 5 4 5 5 4 4 3 6 10 5 6 4 2 3 2 2 0 1 1 2 2 2 4 3 6 8 7 7 7 8 8
10 12 12 12 12 9 8 7 7 8 7 8 7 5 4 4 4 4 3 3 3 4 4 4 4 4 4 5 4 4 3 4 5 4 4 4 5 5 4 4 4 4 4 4 4 4 3 5 5 3 4 5 5 6 6 4 5 5 5 5 4 6 10 6 4 2 3 3 3 4 3 2 2 2 1 2 3 3 3 5 7 7 7 6 8
9 11 10 9 9 9 8 9 9 9 8 8 7 6 4 3 2 3 4 4 4 3 4 5 5 5 5 5 4 4 3 3 4 4 4 4 5 5 5 4 5 4 4 3 4 4 4 2 4 4 4 3 4 4 5 5 5 5 5 4 4 6 7 5 5 5 3 3 3 3 4 3 1 2 2 2 2 3 3 3 4 4 5 11 12
8 9 9 9 9 9 8 8 8 9 8 8 7 7 6 6 6 3 3 4 4 4 3 5 5 5 4 5 4 3 3 3 4 4 5 5 5 5 6 5 5 5 4 4 3 5 5 4 3 5 6 4 4 4 4 6 6 6 5 5 4 5 9 5 2 2 2 2 2 3 4 2 2 1 2 3 3 3 3 4 4 4 5 9 13
9 9 8 8 10 10 11 10 8 9 9 8 8 8 7 6 3 5 5 5 4 3 3 3 4 4 3 5 4 4 4 4 4 4 5 5 5 4 4 4 4 4 5 5 4 3 4 3 3 3 6 5 2 2 2 4 7 5 5 5 5 3 4 5 3 3 2 1 2 1 2 3 2 2 2 4 4 3 4 4 4 5 5 4 6
8 8 9 9 9 10 11 11 9 9 10 10 9 8 7 7 7 6 3 4 4 5 3 3 4 3 4 5 5 4 3 3 4 4 3 5 5 5 5 4 4 4 4 4 3 3 4 4 3 4 2 4 3 3 4 3 2 4 6 3 3 4 3 5 3 3 3 2 2 2 2 2 3 3 3 5 4 4 4 4 5 5 5 5 5
11 10 8 9 9 9 9 10 9 9 9 8 8 7 4 4 5 4 5 3 2 3 4 3 3 4 5 5 5 5 5 4 4 3 3 3 4 5 5 4 4 4 5 4 4 4 4 5 3 5 4 2 3 1 1 2 3 3 3 5 1 3 4 3 3 4 2 3 2 2 3 3 3 3 4 5 5 4 4 3 4 6 5 4 5
9 8 8 9 8 8 8 9 9 7 8 7 6 4 6 5 4 6 5 5 4 3 3 3 4 6 5 5 5 5 4 4 4 4 3 3 4 5 4 4 5 4 5 6 4 4 4 4 3 2 4 4 1 1 2 2 3 7 3 1 1 4 3 1 2 3 1 4 2 2 3 4 3 4 5 5 5 5 4 4 6 5 5 5 4
9 10 10 9 7 9 8 8 7 6 6 6 7 6 5 5 5 5 5 7 6 5 5 4 3 4 5 4 5 4 4 4 4 4 4 4 3 4 4 3 3 3 4 5 5 6 5 4 5 4 4 6 2 1 1 3 3 1 6 4 3 1 2 2 3 4 4 3 2 3 3 3 4 4 5 5 5 5 5 6 6 6 5 5 5
10 9 9 9 8 8 7 5 5 5 6 6 6 6 7 9 9 9 8 6 6 6 6 6 5 5 6 3 4 4 4 3 3 3 3 3 4 4 4 5 4 3 4 4 4 4 4 5 5 5 3 1 5 4 2 2 2 2 2 2 5 4 5 3 4 2 3 3 1 4 4 3 3 5 5 6 6 5 5 6 5 6 5 6 5
9 7 7 6 6 7 6 7 6 5 5 5 5 6 7 7 10 10 9 9 9 4 4 5 6 4 5 5 5 3 3 4 3 3 3 2 2 3 3 4 4 3 3 5 5 5 5 5 4 4 4 4 3 4 5 3 2 2 2 2 1 1 5 5 3 4 5 3 4 3 4 2 3 5 6 5 5 6 5 5 6 6 5 4 4
9 7 6 5 7 6 7 7 5 6 5 5 5 6 8 6 7 6 7 8 7 6 6 5 3 4 5 4 5 4 3 3 4 3 3 3 2 3 3 4 4 3 2 4 6 5 4 3 4 3 3 4 4 5 4 3 6 2 2 1 3 3 3 5 4 5 6 6 3 4 3 2 3 4 6 6 5 6 6 5 6 5 4 4 3
9 9 7 7 5 5 6 6 6 6 5 4 5 4 5 7 7 7 7 5 7 6 4 4 5 5 5 3 4 3 3 2 2 3 2 3 3 3 3 3 3 4 3 2 1 4 5 5 5 5 5 3 3 3 5 5 4 4 2 1 3 3 5 4 4 4 5 7 3 3 2 2 5 5 5 4 5 5 6 6 5 4 3 3 3
8 7 5 5 5 5 6 6 6 6 5 4 4 3 4 6 8 8 9 7 6 5 5 5 5 5 6 4 4 4 4 3 3 3 3 2 2 3 3 4 4 3 3 3 3 3 4 5 5 5 4 4 3 5 6 5 4 4 4 4 2 3 4 3 2 5 4 3 8 6 4 7 5 2 3 5 6 5 5 5 5 4 3 4 3
6 7 7 7 6 6 5 6 5 4 3 3 3 3 4 5 8 8 9 9 7 7 7 6 5 5 6 4 4 4 4 6 5 3 4 4 3 3 3 3 4 4 3 4 4 5 5 5 4 3 3 4 4 4 3 3 3 4 3 5 6 7 6 5 5 4 4 3 4 3 2 2 5 7 2 3 6 5 4 3 5 4 4 4 3
Wind_Direction
200 152 142 144 144 137 129 127 123 123 126 126 123 120 119 117 115 115 114 112 109 108 108 109 111 112 110 107 105 106 106 105 105 105 104 103 103 105 105 106 104 100 97 96 95 90 88 90 91 92 93 93 91 89 89 89 89 88 87 88 92 96 80 83 83 80 81 82 79 75 74 80 85 84 84 77 75 75 74 71 62 53 53 73 70
162 154 142 145 143 138 129 125 124 124 127 128 125 123 121 119 119 119 117 114 112 110 109 109 109 110 110 108 107 106 106 105 104 103 103 104 104 105 107 106 105 104 103 101 97 96 93 91 90 88 88 90 89 88 88 88 89 91 90 93 98 101 89 87 85 91 88 84 79 74 74 74 79 84 82 85 81 77 74 74 72 62 61 75 69
138 144 143 146 143 139 129 125 125 128 131 130 128 126 123 122 122 121 119 117 115 113 111 109 108 109 109 108 108 107 107 106 105 103 105 107 108 106 104 103 101 101 101 101 95 91 92 91 91 91 89 90 89 85 84 86 87 87 93 98 99 97 97 92 85 81 83 85 83 81 80 84 80 82 87 88 82 80 78 78 76 72 67 65 64
136 144 144 143 141 138 130 129 129 131 133 132 130 128 125 124 124 123 122 120 117 115 114 112 109 108 110 110 110 109 109 108 106 106 107 110 110 106 108 107 105 103 103 102 101 98 94 92 91 91 89 84 83 82 84 85 86 88 89 93 102 103 102 99 88 84 85 85 83 75 58 49 83 85 88 89 84 79 79 76 74 75 73 70 65
135 139 142 140 138 138 135 132 130 131 134 134 132 129 127 126 125 123 123 121 119 117 116 115 111 109 110 111 111 111 110 110 109 109 109 110 111 111 112 114 112 108 106 103 101 99 98 95 91 91 91 90 85 83 83 83 81 84 86 90 92 105 112 111 96 62 88 93 92 83 59 55 62 88 88 80 76 81 83 77 76 76 75 74 72
138 138 137 134 138 142 139 138 135 136 136 135 131 129 127 127 127 126 124 122 119 119 118 117 114 113 111 111 112 112 110 110 107 110 111 106 109 118 115 110 105 107 106 107 104 101 99 94 94 95 89 85 85 85 81 78 78 79 78 75 76 83 67 64 56 50 72 86 87 68 80 77 63 80 82 87 89 84 77 79 76 72 72 72 73
133 134 134 135 139 143 142 140 138 137 136 135 132 131 129 129 129 128 125 123 120 118 118 117 116 115 115 114 114 114 111 110 107 110 107 106 105 103 107 111 111 112 111 107 105 104 101 98 97 89 84 78 73 70 71 70 72 75 76 75 76 66 58 53 55 68 70 67 66 77 82 85 62 60 90 92 92 87 82 82 85 77 78 74 72
124 132 139 140 143 146 144 142 139 137 139 138 135 133 133 133 131 130 128 125 123 120 118 117 117 117 116 116 115 116 112 111 107 102 99 100 104 118 119 114 113 111 112 112 109 106 102 98 96 93 83 75 70 65 61 63 63 61 67 69 69 65 55 43 77 103 99 85 74 78 77 68 62 64 89 87 83 85 83 82 79 79 77 75 73
131 138 142 143 147 149 146 144 142 142 140 140 139 137 136 135 133 133 130 126 124 121 121 119 118 116 116 117 118 117 113 110 103 94 88 85 83 79 84 105 110 103 97 97 103 102 99 99 98 91 83 76 69 64 59 57 59 59 62 58 54 43 25 26 116 119 109 100 87 86 85 78 72 85 87 86 89 82 76 75 81 85 83 76 74
136 140 146 146 149 150 148 148 146 144 144 143 141 140 139 136 135 134 129 126 124 123 122 120 117 117 116 116 117 117 116 109 104 98 93 89 86 84 88 93 95 96 100 102 105 106 104 101 100 96 88 79 74 68 63 58 59 57 55 51 41 33 43 67 99 101 98 100 98 92 92 90 82 88 100 102 94 98 100 106 99 86 85 85 83
142 144 144 144 150 151 150 150 149 147 144 144 142 140 139 136 135 132 129 125 124 124 123 121 119 117 117 116 116 116 113 112 109 104 99 97 94 93 90 88 91 102 105 105 107 109 109 106 106 99 95 90 82 75 65 58 51 51 46 43 40 39 66 84 94 100 102 102 96 93 97 96 90 90 93 84 87 90 94 87 84 91 92 90 85
138 137 139 144 150 151 151 151 150 147 142 143 142 140 139 135 132 131 126 125 125 124 123 122 120 118 116 116 116 116 114 112 110 107 103 102 102 100 99 95 96 100 105 107 109 111 110 109 107 104 97 91 85 71 54 45 40 43 42 43 39 40 65 97 100 105 106 98 91 91 94 94 91 89 86 87 88 83 83 90 92 89 87 90 92
135 138 141 146 150 155 152 151 150 149 146 145 143 140 138 133 131 128 126 125 123 123 122 121 119 117 117 118 117 116 113 112 112 110 109 108 107 105 103 103 103 107 110 111 111 112 112 113 108 107 99 89 79 63 46 32 28 35 42 44 42 45 77 103 102 105 105 105 100 98 98 97 97 103 100 97 96 92 83 85 90 92 89 81 73
135 137 142 144 149 154 151 151 151 150 148 145 142 139 133 131 128 126 124 123 121 119 119 117 116 118 118 118 117 115 113 110 112 113 113 112 112 110 109 108 108 110 113 115 117 117 119 117 116 105 96 85 73 53 37 21 19 29 43 49 45 51 95 107 111 111 115 113 112 113 110 103 99 98 93 92 91 94 99 97 93 89 90 90 90
135 139 138 140 149 151 150 146 146 143 141 138 136 133 129 125 122 122 121 119 119 118 115 114 119 121 121 121 120 119 116 112 112 115 117 116 114 111 109 107 111 113 115 115 116 117 120 120 115 100 89 85 71 55 32 8 3 23 41 49 47 54 98 116 115 118 119 119 112 109 107 114 112 107 104 104 103 102 99 95 88 85 82 85 91
127 129 132 136 136 142 140 140 135 134 134 133 132 128 122 119 119 118 117 117 116 118 119 121 120 123 124 124 125 122 118 115 113 113 114 116 114 111 110 107 107 110 113 114 113 115 116 114 115 119 97 74 71 46 28 2 349 15 40 46 43 62 113 114 115 112 113 113 111 109 109 110 115 111 106 103 102 97 97 95 92 88 90 90 87
121 126 129 126 122 119 123 126 133 131 128 127 123 119 117 117 115 115 114 114 116 119 118 120 121 122 123 125 126 125 120 115 114 113 111 110 110 110 110 109 110 114 115 117 117 115 117 117 118 117 124 102 90 43 10 338 345 13 37 42 30 109 123 116 113 119 124 120 116 111 110 115 117 109 105 104 107 107 100 95 94 94 93 84 83
120 125 124 120 112 110 112 117 123 122 125 123 120 117 116 114 114 113 113 116 119 117 117 120 122 123 124 127 126 125 122 118 116 115 113 114 114 113 114 113 114 119 119 115 116 119 122 119 121 126 128 298 349 26 358 335 344 6 32 44 47 111 114 116 122 126 125 117 111 116 116 122 119 115 110 108 105 103 103 101 100 103 104 99 90
115 112 113 115 111 107 105 107 107 110 113 120 124 121 118 116 114 116 118 118 114 113 115 120 124 124 123 122 124 124 122 120 118 115 114 114 111 112 117 117 115 113 113 113 115 119 119 119 125 132 139 250 313 352 345 337 344 358 29 51 66 112 119 113 117 116 105 107 113 125 127 122 112 112 112 112 111 108 107 110 110 101 95 96 97
107 107 104 100 106 105 104 103 103 103 105 120 125 127 125 120 122 119 118 115 112 114 119 123 127 127 127 126 125 124 124 124 118 116 117 112 111 117 123 117 115 115 117 120 115 112 109 112 119 132 154 200 278 335 336 334 337 352 27 49 101 129 112 115 110 107 118 123 126 129 132 130 123 117 116 115 112 113 114 113 112 109 106 103 100
101 96 102 106 108 114 111 109 108 108 111 118 122 123 127 123 122 121 120 117 116 120 125 128 129 129 125 122 114 113 115 117 114 110 111 106 112 121 123 117 114 116 121 117 110 107 110 111 109 65 134 218 265 311 325 321 332 345 26 53 90 99 114 111 114 123 129 126 123 128 127 127 126 120 119 119 119 120 120 119 119 116 110 106 106
113 107 100 110 115 116 119 114 114 117 119 120 123 124 127 122 119 119 116 117 123 125 122 117 119 112 126 117 112 112 107 109 118 117 113 114 124 129 124 117 115 118 119 112 106 106 106 110 110 124 240 294 293 19 351 334 329 331 35 68 95 110 117 122 125 131 131 132 133 136 135 137 126 121 123 123 125 123 120 118 118 118 115 111 107
116 113 114 115 115 119 119 118 120 122 114 112 114 121 120 119 111 113 117 121 126 117 103 100 88 96 87 98 98 101 108 115 115 123 116 129 128 133 130 124 122 123 121 116 111 112 109 113 121 130 249 301 8 11 349 324 321 2 54 58 108 109 111 116 123 129 140 143 139 139 139 135 126 124 126 128 128 125 121 116 116 116 115 113 107
123 127 124 110 118 124 123 121 124 120 112 108 107 120 115 107 116 111 106 106 99 94 92 94 90 89 94 91 97 99 104 120 140 138 133 119 134 140 131 124 121 120 118 102 105 115 111 107 134 137 92 6 332 325 316 315 308 57 40 76 111 114 122 133 139 142 149 141 140 146 151 149 130 129 132 126 129 127 119 113 112 113 115 116 113
119 113 107 118 121 122 119 116 117 107 102 104 106 121 98 112 113 113 112 99 92 94 98 95 103 104 103 101 99 96 88 81 82 93 99 123 144 139 114 98 102 101 100 92 79 48 79 72 33 52 125 239 327 312 324 319 326 61 77 134 126 126 133 138 141 141 136 129 129 122 116 107 117 135 125 126 132 125 117 115 113 115 117 115 115
122 121 124 126 129 121 120 119 96 112 102 102 112 105 117 130 126 107 90 80 97 106 112 115 113 111 111 111 106 106 102 103 107 110 116 145 143 134 121 115 108 128 113 120 101 68 81 60 66 114 260 300 326 306 289 275 10 98 151 148 134 123 121 119 122 122 118 114 117 117 113 106 113 122 127 134 130 123 123 120 118 119 121 123 122
137 126 126 129 122 115 121 109 115 124 124 124 113 115 125 107 83 103 108 98 102 116 127 127 130 130 126 127 122 112 108 112 113 121 147 154 138 124 114 113 135 148 140 114 145 82 75 44 56 58 59 41 4 335 306 336 99 116 140 147 127 113 101 109 110 105 98 97 115 120 120 124 128 125 128 134 128 124 125 127 127 124 126 129 126
100 124 120 124 115 118 121 117 120 124 121 115 114 114 116 100 98 111 116 127 124 130 130 136 133 131 129 125 119 115 125 127 129 138 152 123 121 113 113 106 115 137 124 101 70 50 53 55 60 60 64 57 41 3 22 65 78 100 113 105 111 119 117 111 96 84 81 85 89 105 118 132 141 137 135 134 133 133 134 137 140 137 141 135 127
149 107 94 105 95 108 119 121 123 115 97 97 95 92 98 103 172 147 137 141 138 149 139 121 127 130 128 126 126 126 132 134 143 157 133 116 111 114 119 128 112 113 119 81 83 79 63 63 71 73 77 76 63 50 56 32 73 92 117 116 124 120 119 110 103 91 85 92 101 112 115 129 152 146 137 138 142 140 131 128 138 145 145 136 134
85 68 66 109 112 119 128 127 116 105 108 92 91 107 142 164 193 168 157 152 160 151 137 133 150 141 134 125 122 136 144 144 152 162 131 120 109 105 113 125 121 117 99 95 103 102 110 82 79 82 86 87 80 77 85 89 90 82 76 117 118 119 122 120 109 104 102 97 106 117 115 97 96 161 141 147 137 134 135 129 133 145 144 139 142
92 95 21 86 139 147 135 128 135 129 122 128 141 159 170 171 180 180 163 163 145 135 132 139 133 134 142 137 148 151 140 148 154 147 126 118 120 125 131 122 107 113 115 113 113 114 117 112 98 107 113 106 101 107 103 91 89 107 74 102 108 115 119 119 118 119 109 106 126 140 123 100 89 87 107 128 141 143 136 137 137 149 150 153 156
127 150 155 149 148 150 134 140 134 132 134 151 157 160 170 179 180 173 171 173 151 149 151 147 138 156 147 164 166 153 139 151 148 137 128 124 132 141 144 140 147 150 124 125 117 129 132 119 102 98 107 115 115 112 127 117 109 75 63 102 105 109 122 124 119 107 103 133 163 164 103 84 103 104 99 88 79 124 139 140 146 145 151 163 165
160 157 147 152 159 150 136 142 128 131 137 164 174 166 173 183 177 173 178 161 137 146 142 149 127 122 176 183 167 147 143 149 152 135 128 138 150 146 134 145 150 151 138 131 127 119 120 114 101 108 105 111 109 105 82 49 65 94 88 101 119 119 126 118 96 64 117 203 175 78 56 51 77 114 109 96 91 51 65 164 155 154 145 160 172
158 147 143 147 153 145 144 148 130 134 150 165 201 173 181 173 177 151 153 143 150 148 158 154 148 173 188 165 164 146 139 145 142 121 133 141 138 140 138 137 143 138 132 130 112 118 110 114 126 101 108 116 117 120 110 98 260 89 71 111 107 115 116 93 78 169 216 165 70 70 77 16 46 46 44 66 69 60 67 70 92 89 127 149 169
130 139 139 151 150 144 149 149 147 148 161 170 186 183 170 162 159 149 155 138 119 123 129 115 137 181 161 168 162 150 146 150 145 142 149 143 140 136 144 151 143 143 130 103 105 84 107 120 121 105 115 117 109 116 116 140 133 100 131 134 120 115 95 74 116 200 205 118 83 71 18 25 31 31 46 41 38 46 44 50 56 59 40 23 193
145 126 127 136 141 152 157 153 154 155 162 170 176 175 156 156 146 147 134 128 128 135 148 156 181 175 161 168 176 158 150 148 144 144 140 141 135 141 156 143 139 130 120 110 102 110 106 92 81 122 122 113 111 115 121 130 122 122 143 112 107 102 82 96 189 210 76 73 94 114 42 24 46 358 73 42 41 36 47 56 46 36 25 36 24
132 128 132 142 151 159 157 150 146 145 150 150 154 149 139 145 142 152 158 151 159 168 176 179 181 176 166 166 171 166 152 143 137 143 135 141 136 143 156 146 144 141 132 130 121 131 119 104 73 77 110 123 119 115 112 132 128 119 101 88 82 92 92 153 188 168 138 136 88 84 103 168 195 111 56 63 52 48 49 50 43 33 23 19 15
132 135 145 152 153 152 148 142 135 142 141 143 147 141 154 149 155 161 166 175 174 177 180 175 179 177 167 170 169 167 155 141 133 140 141 140 136 140 141 136 137 134 136 138 133 129 118 127 121 94 103 122 121 119 117 113 102 99 94 89 86 96 122 154 194 139 173 152 149 155 180 208 149 124 112 74 62 62 58 44 38 32 31 25 31
138 141 147 143 136 139 139 140 137 141 139 139 140 142 148 152 151 158 171 185 185 176 168 179 182 172 181 173 164 153 146 137 133 137 133 124 120 126 130 143 139 134 125 116 124 125 123 118 129 114 80 78 117 105 106 104 96 91 81 66 80 96 105 141 179 165 194 183 169 162 157 187 143 105 109 88 77 74 60 53 51 51 38 54 52
137 141 142 139 134 133 132 135 144 144 141 141 143 144 151 163 166 160 162 175 166 158 162 173 179 181 175 167 157 148 150 138 131 130 130 134 137 143 141 144 142 133 125 121 130 145 142 130 128 119 104 76 57 94 104 101 86 80 84 66 60 88 116 153 193 230 184 167 175 138 149 134 105 91 94 97 74 61 70 59 60 58 56 59 54
137 140 141 144 144 145 145 151 156 150 147 148 152 153 160 157 154 171 174 175 169 152 159 170 187 190 170 146 131 138 142 142 139 137 146 142 139 135 131 137 137 142 143 153 164 148 121 114 115 93 114 111 76 102 110 115 106 73 64 68 55 46 81 109 139 214 207 115 93 110 100 104 98 98 84 79 74 71 73 74 82 73 61 53 50
148 145 151 154 149 150 151 154 155 158 159 160 161 165 168 170 161 174 168 148 144 153 173 185 173 160 132 113 123 138 135 133 141 143 142 143 137 132 140 143 137 149 151 142 141 133 117 120 133 84 34 123 129 158 194 115 46 131 121 73 31 16 54 77 120 120 133 99 86 93 89 117 121 117 90 79 75 80 80 87 81 79 65 60 51
146 153 157 149 150 155 154 157 162 162 165 163 158 163 158 150 147 164 151 146 173 168 158 157 139 117 116 123 122 127 134 143 149 139 136 140 131 132 141 146 147 149 133 137 140 139 134 138 151 135 111 50 102 89 139 76 138 97 91 90 69 65 355 17 27 61 97 124 116 135 121 103 86 90 99 89 87 82 74 67 77 74 76 63 46
146 152 159 157 155 156 159 161 163 159 159 167 157 151 154 163 148 144 154 145 153 122 94 91 95 104 115 121 125 133 136 142 142 137 131 145 147 140 137 142 148 146 150 150 158 152 135 128 116 151 140 128 106 36 29 62 125 137 98 117 176 118 92 55 41 354 340 114 128 126 128 115 105 96 89 87 80 75 78 77 77 77 68 56 49
161 163 164 164 161 160 162 162 154 151 153 155 157 148 126 114 114 99 94 73 59 79 98 86 113 125 120 124 144 134 138 147 149 144 145 165 150 130 133 143 137 139 147 150 156 161 163 156 149 160 175 150 156 104 2 46 67 74 137 113 58 43 206 201 114 13 360 66 133 134 106 101 104 96 88 81 75 71 83 80 76 73 63 57 50
169 172 167 161 154 152 144 135 132 142 156 166 157 156 155 136 132 134 129 124 127 130 135 150 146 147 161 146 131 146 149 149 149 146 145 160 157 149 139 142 147 158 149 149 133 134 153 154 170 162 152 196 145 123 106 21 67 59 117 162 163 171 173 202 88 115 11 18 69 103 108 85 87 88 82 82 80 76 76 84 76 68 57 49 40
176 165 158 152 148 143 142 146 149 152 160 163 169 152 129 137 140 145 146 148 145 170 161 156 151 152 131 141 151 145 151 151 165 153 159 160 149 144 142 146 158 169 152 137 144 155 158 157 148 147 156 133 127 144 163 170 43 12 21 33 81 115 133 131 140 137 78 355 18 65 72 82 97 97 89 83 93 92 77 80 75 64 57 55 47
165 158 148 143 152 153 147 143 144 153 168 163 157 140 136 135 127 123 133 139 146 154 158 154 118 128 125 132 132 144 152 164 163 161 145 149 145 152 152 147 149 167 159 159 159 163 152 129 139 143 145 155 157 154 168 173 159 229 351 20 55 95 99 93 106 138 133 120 69 22 42 39 84 80 94 106 105 102 97 82 79 68 57 54 56
165 161 164 159 145 144 138 134 148 157 164 161 139 125 133 142 132 129 117 126 128 132 120 104 116 126 116 108 98 103 110 126 147 148 153 159 154 162 153 151 156 161 150 103 103 148 155 139 137 141 162 165 136 136 147 181 157 165 117 24 56 71 73 82 112 94 128 121 92 131 131 22 58 54 86 96 99 96 98 101 96 98 95 81 76
164 153 142 132 134 143 141 141 150 156 155 138 106 99 133 136 125 125 124 122 110 104 107 112 114 118 114 107 108 107 109 92 114 139 124 130 126 143 157 169 170 147 145 155 129 128 140 156 168 166 158 149 153 156 172 171 165 160 165 157 121 95 81 80 70 96 56 47 145 167 165 141 120 44 108 113 103 90 98 102 106 111 102 88 72
148 147 145 141 143 143 139 140 137 115 111 96 92 130 152 131 126 130 128 128 126 120 109 103 111 107 115 119 110 107 102 110 109 101 115 128 116 106 105 110 133 142 125 131 144 144 149 155 155 140 147 155 171 161 134 161 144 162 175 164 164 163 162 157 166 147 136 123 100 124 108 127 129 104 36 88 101 113 113 120 121 111 108 95 84